Regional Weather Roundup
Issued by NWS Charleston, SC

Current Version | Previous Version | Graphics & Text | Print | Product List | Glossary On
Versions: 1 2 3 4 5 6 7 8 9 10 11 12 13 14 15 16 17 18 19 20 21 22 23 24 25 26 27 28 29 30 31 32 33 34 35 36 37 38 39 40 41 42 43 44 45 46 47 48 49 50
000 ASUS42 KCHS 021327 RWRCHS REGIONAL WEATHER ROUNDUP NATIONAL WEATHER SERVICE CHARLESTON SC 900 AM EDT TUE JUN 02 2015 NOTE: "FAIR" INDICATES FEW OR NO CLOUDS BELOW 12,000 FEET WITH NO SIGNIFICANT WEATHER AND/OR OBSTRUCTIONS TO VISIBILITY. NOT ALL STATIONS ARE QUALITY CONTROLLED BY THE NATIONAL WEATHER SERVICE. USE DATA WITH CAUTION...ESPECIALLY DEWPOINT OBSERVATIONS. SCZ027-030-031-034>040-042>050-021400- ...SOUTHEAST SOUTH CAROLINA... CITY SKY/WX TMP DP RH WIND PRES REMARKS N CHARLESTON MOSUNNY 79 69 71 SW5 30.03R WATERFRONT PAR N/A 79 72 79 VRB3 30.00R MOUNT PLEASANT LGT RAIN 81 70 69 SW5 30.03S JOHNS ISLAND MOSUNNY 81 72 74 S6 30.03S PINOPOLIS N/A 77 72 83 VRB2 29.94S MONCKS CORNER FAIR 79 70 73 CALM 30.04R SUMMERVILLE FAIR 77 70 78 CALM 30.05R BEAUFORT MCAS MOSUNNY 80 69 69 W8 30.03R BEAUFORT ARPT FAIR 81 70 69 W10 30.03S HILTON HEAD IS MOSUNNY 81 70 69 SW6 30.04R WALTERBORO MOSUNNY 75 68 78 CALM 30.04S ALLENDALE FAIR 75 70 83 CALM 30.04R ...SOUTHERN MIDLANDS AND PEE DEE... CITY SKY/WX TMP DP RH WIND PRES REMARKS GEORGETOWN NOT AVBL KINGSTREE NOT AVBL ORANGEBURG PTSUNNY 75 67 76 CALM 30.04S BARNWELL FAIR 75 70 83 SW5 30.05S AIKEN PTSUNNY 70 64 83 CALM 30.08S MANNING FAIR 73 64 73 CALM 30.04S COLUMBIA PTSUNNY 73 68 84 CALM 30.03S SUMTER PTSUNNY 74 66 74 W5 30.02S FLORENCE CLOUDY 73 69 87 W6 30.04R MYRTLE BEACH PTSUNNY 81 70 69 W6 30.05R N MYRTLE BEACH CLOUDY 80 71 74 SW8 30.03S $$ GAZ063-065-086>088-099>101-113>116-118-119-134>141-150-021400- ...SOUTHEAST GEORGIA... CITY SKY/WX TMP DP RH WIND PRES REMARKS SAVANNAH ARPT PTSUNNY 76 67 73 SW6 30.04R HUNTER AAF MOSUNNY 78 70 75 VRB3 30.01R FORT STEWART PTSUNNY 75 68 77 VRB2 30.02R STATESBORO PTSUNNY 73 73 100 W6 30.04R SYLVANIA PTSUNNY 75 72 91 NW3 30.06R CLAXTON FAIR 73 72 94 CALM 30.04S ...CSRA...CENTRAL AND FAR SOUTHEAST GEORGIA... CITY SKY/WX TMP DP RH WIND PRES REMARKS THOMSON PTSUNNY 72 70 93 CALM 30.09F AUGUSTA-BUSH CLOUDY 72 69 90 CALM 30.03S AUGUSTA-DANIEL PTSUNNY 73 67 81 CALM 30.05S SWAINSBORO FAIR N/A N/A N/A CALM 30.05S VIDALIA PTSUNNY 72 70 94 CALM 30.05R EASTMAN FAIR 72 72 100 CALM 30.07R HAZLEHURST FAIR 74 73 96 CALM 30.04R ALMA PTSUNNY 71 68 90 CALM 30.03R WAYCROSS CLOUDY 73 71 95 CALM N/A JESUP FAIR 73 72 94 CALM 30.04R BAXLEY FAIR 73 70 88 CALM 30.04S BRUNSWICK PTSUNNY 77 68 73 CALM 30.05S SAINT SIMONS NOT AVBL $$ SCZ027-028-034-036>038-045-046-048>050-GAZ119-141-021400- ...LAKE AND SUPPLEMENTAL COASTAL OBSERVATIONS... STATION/POSITION TIME TEMP WIND PRES WAVE SWELL AIR SEA DIR/SP/G HT/PER HT/PER/DIR (UTC) (F) (DEG/KT/KT) (MB) (FT/S) (FT/S/D) UPR LAKE MARION NOT AVBL WINYAH BAY 1245 78 180/ 3 1016.0R LAKE MURRAY 1200 71 290/ 4/ 5 1016.6R ACE BASIN NERRS NOT AVBL FORT PULASKI 1300 78 81 230/ 5/ 7 1017.6R SAPELO ISLAND 1300 78 260/ 2 1017.0S $$ ANZ835-935-AMZ111-154-330-350-352-354-370-450-454-472-021400- ...C-MAN AND BUOY OBSERVATIONS... STATION/POSITION TIME TEMP WIND PRES WAVE SWELL AIR SEA DIR/SP/G HT/PER HT/PER/DIR (UTC) (F) (DEG/KT/KT) (MB) (FT/S) (FT/S/D) BUOY 41004 1250 78 80 170/ 2/ 4 1016.8R 3/ 8 3/ 8 BUOY 41008 1250 77 78 180/ 4/ 4 1017.1R 2/ 9 2/ 80/ 9 FOLLY BEACH CMAN 1300 78 210/ 7/ 9 1017.1R CAPERS NEARSHORE 1208 78 230/ 8/ 12 1016.7R FRIPP NEARSHORE 1200 79 230/ 8/ 10 1016.1R STATION/POSITION TIME TEMP WIND PRES WAVE SWELL AIR SEA DIR/SP/G HT/PER HT/PER/DIR (UTC) (F) (DEG/KT/KT) (MB) (FT/S) (FT/S/D) 5E ST. MARYS GA 1221 80 N/A 2/ 9 FRYING PAN BUOY 1250 75 76 180/ 8/ 12 1018.0R 3/ 7 2/100/ 7 BUOY 41025 1250 78 81 230/ 6/ 8 1017.4R 3/ 8 3/ 80/ 8 CAPE LOOKOUT NC 1300 78 200/ 9/ 11 1017.1R BUOY 41002 1250 77 77 CALM / 2 1018.2R 4/ 8 3/ 90/ 8 BUOY 41010 1220 78 80 120/ 4/ 6 1017.3R ST AUGUSTINE FL 1300 75 76 120/ 3/ 3 1017.7R $$

USA.gov is the U.S. government's official web portal to all federal, state and local government web resources and services.